Regional Weather Roundup
Issued by NWS Sioux Falls, SD

Home | Current Version | Previous Version | Text Only | Print | Product List | Glossary Off
Versions: 1 2 3 4 5 6 7 8 9 10 11 12 13 14 15 16 17 18 19 20 21 22 23 24 25 26 27 28 29 30 31 32 33 34 35 36 37 38 39 40 41 42 43 44 45 46 47 48 49 50

000
ASUS43 KFSD 290602
RWRFSD

WEATHER ROUNDUP FOR SE SOUTH DAKOTA/SW MINNESOTA/NW IOWA
NATIONAL WEATHER SERVICE SIOUX FALLS SD
100 AM CDT FRI AUG 29 2014

NOTE: "FAIR" INDICATES FEW OR NO CLOUDS BELOW 12,000 FEET WITH NO
SIGNIFICANT WEATHER AND OR OBSTRUCTIONS TO VISIBILITY.


SDZ038>040-050-052>070-290700-
SOUTHEAST SOUTH DAKOTA

CITY           SKY/WX    TMP DP  RH WIND       PRES   REMARKS
CHAMBERLAIN    CLOUDY    67  67  99 NW6       29.81S
6HR MIN TEMP:  67; 6HR MAX TEMP:  73;

HURON          CLOUDY    69  68  96 E7        29.78F
6HR MIN TEMP:  69; 6HR MAX TEMP:  72; 6HR PCP:  0.01;

MADISON        CLOUDY    68  68 100 CALM      29.82F
MITCHELL       CLOUDY    71  70  96 E3        29.78F FOG
6HR MIN TEMP:  69; 6HR MAX TEMP:  74; 6HR PCP: TRACE;

SIOUX FALLS    CLOUDY    71  70  96 E3        29.81S FOG
6HR MIN TEMP:  70; 6HR MAX TEMP:  72; 6HR PCP: TRACE;

WINNER         FAIR      67  65  93 W6        29.85R
YANKTON        MOCLDY    70  66  88 E10       29.76F
$$

MNZ071-072-080-081-089-090-097-098-290700-
SOUTHWEST MINNESOTA

CITY           SKY/WX    TMP DP  RH WIND       PRES   REMARKS
FAIRMONT       CLOUDY    68  66  94 S12       29.85F
JACKSON        CLOUDY    72  68  88 SE8       29.85F FOG
LUVERNE        CLOUDY    72  70  94 S3        29.82F FOG
MARSHALL       CLOUDY    66  64  94 SE7       29.81F
6HR MIN TEMP:  66; 6HR MAX TEMP:  70;

MONTEVIDEO     CLOUDY    66  66 100 S7        29.84F FOG
PIPESTONE      FOG       70  68  94 SE6       29.82F VSB 1/2
REDWOOD FALLS  CLOUDY    66  65  96 SE8       29.83F
TRACY          FOG       67  66  97 CALM      29.83F VSB 3/4
WINDOM         FOG       66  66 100 E3        29.84F VSB 1/4
WORTHINGTON    CLOUDY    72  72 100 S7        29.85F
$$

IAZ001>003-012>014-020>022-031-032-NEZ013-014-SDZ071-290700-
NORTHWEST IOWA

CITY           SKY/WX    TMP DP  RH WIND       PRES   REMARKS
DENISON        FAIR      70  68  94 SE10      29.84S
ESTHERVILLE    CLOUDY    71  70  96 S13       29.85F FOG
LE MARS        FAIR      72  72 100 S6G14     29.82R
ORANGE CITY    FAIR      73  70  88 S5        29.82F FOG
SHELDON        FAIR      70  70 100 SE7       29.81F FOG
SIOUX CITY     FAIR      72  70  93 SE5       29.80F FOG
6HR MIN TEMP:  72; 6HR MAX TEMP:  78;

SPENCER        CLOUDY    73  71  93 SE12      29.84F FOG
6HR MIN TEMP:  72; 6HR MAX TEMP:  73; 6HR PCP:  0.01;

STORM LAKE     MOCLDY    70  70 100 S7        29.86R
$$

ABBREVIATIONS USED IN REMARKS
   TC - TEMPERATURE IN CELSIUS
  WCI - WIND CHILL INDEX
   HX - HEAT INDEX
  VSB - VISIBILITY




USA.gov is the U.S. government's official web portal to all federal, state and local government web resources and services.